Wind_Speed
0 6 7 4 5 9 10 5 7 5 5 5 5 5 5 7 3 2 10 18 18 16 14 14 12 11 9 8 7 7 7 7 7 8 8 7 6 7 7 8 8 8 8 8 7 7 8 8 8
6 7 6 3 10 8 7 9 5 4 2 1 2 1 2 2 3 4 12 19 19 17 15 14 11 9 8 7 6 6 5 6 7 8 9 8 9 9 8 8 9 7 7 6 6 7 8 8 7
9 7 5 8 8 6 7 7 5 6 4 1 3 2 2 4 5 16 14 18 19 18 16 14 12 9 8 7 5 5 5 6 9 9 9 9 10 10 8 9 7 7 6 6 7 7 8 8 8
5 4 6 5 6 9 8 8 8 10 7 1 4 4 2 8 17 16 14 16 16 16 15 14 12 9 7 5 5 5 5 6 9 9 9 10 11 10 9 8 7 6 6 6 6 6 7 7 7
5 5 6 8 7 8 7 6 6 7 7 5 1 1 6 14 15 16 14 15 15 16 16 15 12 8 6 5 5 6 6 7 10 10 8 9 10 8 9 8 7 6 6 6 5 4 5 4 5
6 5 9 6 4 7 5 2 4 6 7 6 2 2 5 13 15 15 14 15 16 17 15 14 10 7 6 6 6 7 7 9 10 10 9 9 9 9 8 8 7 7 6 6 4 1 4 4 4
6 4 3 4 8 6 3 4 3 6 6 5 4 2 5 13 17 14 14 15 15 16 15 12 10 8 8 7 7 7 8 9 10 9 8 8 7 8 7 7 6 6 6 10 9 4 5 5 4
4 4 3 3 4 3 3 1 1 4 6 4 3 1 6 10 16 16 16 16 16 16 14 12 10 9 9 9 8 8 9 9 9 9 8 8 7 8 4 6 4 4 5 8 12 6 3 2 2
3 3 5 5 5 8 5 3 1 1 6 3 1 4 7 8 12 15 15 15 15 15 14 12 11 11 10 10 9 10 10 9 9 9 8 7 7 7 3 4 4 4 5 6 7 8 2 2 5
6 6 5 5 7 7 5 3 4 4 12 3 2 6 12 10 12 11 12 15 15 14 13 11 10 11 11 10 10 10 10 9 10 8 8 6 6 6 3 2 2 2 3 4 4 5 5 5 6
7 5 2 3 4 7 7 5 3 5 12 7 5 10 14 13 13 13 13 18 19 16 15 12 11 11 11 10 10 10 8 8 8 7 7 7 5 5 3 2 1 2 3 3 2 3 3 4 6
6 4 3 3 4 4 5 7 6 4 7 11 12 9 10 13 14 14 16 19 17 16 15 12 11 10 10 10 10 10 9 7 6 6 6 7 5 4 2 1 1 2 3 4 2 2 3 3 6
7 5 6 6 5 5 5 6 5 4 4 8 7 15 15 15 13 14 15 16 15 14 12 12 11 10 10 9 9 8 9 8 6 5 5 5 5 4 2 1 2 3 4 4 3 3 3 5 7
12 6 7 7 9 9 8 9 6 3 3 2 6 13 14 9 10 10 13 13 13 12 11 10 10 9 9 8 7 6 6 7 6 5 4 5 5 4 2 2 4 4 3 2 4 6 6 7 10
13 11 12 9 10 10 8 11 5 4 4 2 9 14 9 7 12 14 13 14 14 12 10 10 11 11 10 9 7 6 5 4 3 4 4 3 4 3 3 1 2 3 4 5 3 6 5 8 8
19 12 12 14 12 13 10 12 11 7 5 5 10 15 15 11 15 16 15 13 12 11 11 11 11 11 9 8 7 6 6 6 5 3 4 4 4 2 1 0 2 2 1 2 5 4 5 6 5
20 20 19 18 15 14 14 21 10 11 8 6 10 14 14 18 17 16 15 13 10 9 9 9 8 8 9 8 6 6 6 5 5 3 2 4 5 5 3 2 2 2 1 2 4 4 4 5 5
23 22 23 18 12 13 18 19 20 15 9 7 8 13 16 19 16 15 14 13 12 10 9 11 11 10 10 9 8 7 6 6 5 6 5 6 7 7 5 3 4 3 2 2 3 3 4 5 8
21 25 23 19 17 13 16 16 15 17 13 9 10 14 16 17 18 20 19 17 15 15 13 13 12 11 10 9 9 7 7 8 8 8 9 8 7 5 4 4 4 3 3 3 3 3 4 6 6
18 24 21 18 29 19 16 14 13 17 14 8 8 13 16 18 22 20 21 20 17 15 14 15 14 13 11 11 11 11 11 10 11 11 9 8 9 9 6 4 4 4 4 3 2 3 5 10 13
17 20 21 25 28 23 16 15 9 14 15 14 14 12 16 19 18 18 19 17 16 15 16 15 15 14 13 13 12 10 7 7 8 8 10 9 8 9 8 6 5 4 2 2 3 5 7 8 12
20 19 21 25 26 10 12 8 16 7 10 16 17 18 15 17 18 19 17 17 16 14 15 17 18 17 16 15 13 11 9 7 8 8 10 10 9 9 7 5 5 3 1 2 3 5 6 7 6
19 19 24 23 19 10 7 6 6 11 8 7 18 20 19 18 17 17 18 16 14 16 15 15 16 17 17 15 14 12 10 8 6 6 8 9 10 8 6 5 4 3 1 0 2 3 6 8 14
23 21 20 16 13 5 5 4 7 9 16 13 9 23 20 22 20 19 17 17 17 17 18 18 17 16 16 15 14 14 12 10 8 7 6 6 5 5 4 4 4 4 3 3 4 6 9 11 14
16 9 8 5 4 3 5 3 14 13 21 20 15 15 21 23 24 24 23 22 20 19 18 17 17 16 16 16 16 15 12 11 10 9 8 6 4 3 4 6 7 7 8 9 9 9 9 10 13
17 11 7 4 5 14 15 7 14 22 19 15 20 13 22 25 25 24 21 19 19 18 19 17 17 16 16 15 15 15 14 13 12 11 9 8 6 6 6 5 7 10 12 14 15 14 14 13 17
16 17 15 12 12 4 6 15 21 4 16 15 18 12 20 15 20 24 21 18 18 19 18 16 18 17 16 15 17 17 16 15 12 11 10 8 7 8 8 8 10 12 15 18 20 20 19 18 19
16 13 9 10 5 7 6 9 19 15 16 18 19 15 22 15 14 22 24 23 17 15 16 17 19 18 15 16 16 17 16 15 13 13 10 9 9 10 10 10 12 16 18 21 23 24 24 23 23
8 11 15 14 13 10 8 11 11 14 21 19 16 12 3 23 19 17 16 23 23 18 16 15 14 19 20 20 19 19 17 16 16 15 13 12 13 13 13 14 15 15 19 24 27 27 25 24 24
18 13 14 11 9 12 11 22 14 16 18 19 16 12 7 6 22 24 19 20 24 26 23 19 18 18 15 20 22 21 21 20 19 17 15 16 16 18 18 18 17 16 16 18 19 22 24 23 24
Wind_Direction
183 123 110 83 87 99 86 82 79 117 127 93 135 74 86 98 64 103 144 151 149 148 143 136 127 113 105 92 87 92 91 100 103 100 102 103 121 120 111 109 99 91 91 90 99 103 102 99 98
151 161 143 64 114 94 87 88 88 89 103 165 159 52 146 192 295 185 149 146 149 152 149 148 139 127 115 100 96 105 96 99 101 98 97 107 116 118 118 109 96 93 94 92 95 92 90 90 96
129 154 146 120 114 99 113 103 110 79 75 14 166 293 259 311 155 144 147 147 149 152 155 153 153 146 129 104 107 112 106 114 105 102 105 116 114 111 111 90 86 80 81 77 74 81 91 100 101
92 110 97 115 112 99 113 101 85 66 64 119 246 299 233 134 129 140 147 150 154 151 154 160 159 157 135 112 120 120 126 127 111 111 114 118 116 117 108 97 77 71 69 68 76 89 98 99 103
99 98 108 113 110 103 102 89 86 62 63 78 110 50 139 138 135 148 154 155 159 156 157 160 163 159 140 129 128 120 125 128 118 116 120 119 116 110 108 96 83 67 70 69 69 88 87 100 109
87 88 120 99 117 125 95 127 61 52 49 47 53 194 158 155 144 151 155 160 160 158 160 161 161 157 143 141 130 124 127 122 124 122 125 121 124 127 111 94 91 85 74 36 334 151 109 101 90
86 111 130 96 78 101 123 147 92 53 26 33 83 148 164 163 151 152 155 163 161 160 159 157 153 148 147 139 127 127 127 126 127 127 125 122 130 122 109 107 88 78 60 25 29 80 116 104 103
90 61 124 70 69 82 65 148 138 29 12 27 106 259 187 187 167 161 167 167 164 162 157 154 149 150 145 137 133 136 133 134 128 128 132 131 126 120 104 92 77 57 36 26 39 61 91 97 271
7 45 54 22 18 12 344 10 273 325 0 25 195 194 185 197 177 170 182 179 171 169 160 154 153 150 147 138 142 141 138 138 129 131 130 130 130 128 116 95 71 50 35 33 34 48 36 15 336
53 43 45 27 9 8 13 3 279 343 4 39 322 194 163 171 160 166 177 181 176 176 169 165 160 158 152 148 148 144 141 137 130 131 126 124 126 124 132 109 81 40 31 31 36 51 43 31 20
67 63 68 25 52 43 28 21 335 305 2 19 106 154 156 162 153 147 159 168 179 176 174 174 173 165 158 154 148 141 139 133 129 127 123 128 129 129 139 110 67 18 25 25 32 48 39 16 13
38 2 315 314 13 5 4 18 23 359 351 24 125 144 151 147 139 133 131 146 168 169 173 175 175 168 160 160 159 149 142 138 127 133 132 145 150 139 138 158 312 346 11 14 1 27 11 6 351
8 338 315 276 303 334 326 343 336 6 335 21 153 142 147 145 144 143 143 149 156 163 171 172 171 169 165 168 166 164 161 154 150 151 149 160 168 155 160 199 247 267 294 309 340 355 359 344 334
359 332 338 304 297 309 315 311 318 356 342 33 179 151 152 155 151 149 147 151 158 163 168 168 170 169 168 168 167 178 179 171 159 157 156 149 154 160 198 218 249 274 269 280 321 323 308 325 337
351 339 307 315 305 296 307 293 309 318 311 298 199 187 185 174 156 148 143 145 152 157 162 167 173 170 165 164 170 181 196 204 166 171 162 150 150 151 154 188 277 297 263 273 297 319 311 334 344
1 342 339 329 314 295 279 306 311 332 334 274 211 208 209 195 172 160 153 147 143 150 164 172 176 177 168 159 172 182 187 183 188 167 199 209 193 190 164 329 336 327 305 266 308 324 336 343 349
0 339 330 328 323 290 282 304 311 324 331 269 214 198 190 181 187 180 170 158 150 156 165 175 176 174 176 174 170 178 173 174 175 188 214 237 228 207 213 213 225 246 249 269 300 316 345 332 339
337 334 342 327 320 292 285 297 300 301 323 311 215 201 194 193 190 188 184 176 169 171 177 178 184 185 187 193 197 197 194 195 200 217 215 206 214 218 207 199 203 214 222 276 287 323 338 337 347
346 340 340 1 3 322 321 301 289 287 276 290 267 210 201 199 187 187 183 180 183 188 193 190 193 199 202 197 200 199 205 212 215 221 213 217 228 229 216 203 205 220 249 257 268 1 352 349 348
342 338 343 347 344 333 328 311 276 265 269 282 263 219 203 191 198 192 189 187 187 195 198 202 198 204 205 200 197 198 205 210 219 228 228 236 219 212 214 208 220 236 239 244 309 327 354 7 16
322 332 330 337 337 331 335 320 296 271 255 241 234 203 196 199 200 202 200 193 190 198 204 199 202 202 204 203 200 192 187 203 219 236 235 225 211 208 213 218 207 188 204 271 347 31 56 33 17
310 330 325 328 325 311 317 308 325 316 262 241 233 222 202 197 194 195 195 197 197 193 200 195 200 201 201 199 187 179 182 190 204 204 217 207 202 207 210 206 185 186 262 21 53 58 44 12 27
301 313 317 320 316 306 299 283 301 328 352 329 231 225 212 194 192 191 190 190 190 198 203 203 203 203 200 191 184 179 171 173 155 166 188 197 200 207 203 185 184 218 250 31 4 8 351 333 322
300 308 311 304 299 267 326 249 301 4 338 329 309 219 213 204 192 185 179 178 187 196 200 206 207 206 205 194 186 179 178 171 153 142 160 184 197 210 215 207 216 218 224 269 287 311 320 322 328
303 324 304 270 245 309 332 276 276 338 336 330 351 217 210 205 197 195 192 192 192 195 200 203 205 205 204 196 188 185 179 170 169 162 160 163 181 215 236 256 240 233 235 259 274 288 302 311 330
279 279 269 288 302 314 305 258 291 312 329 337 343 215 200 205 199 195 202 202 202 195 198 198 199 200 200 196 190 186 185 183 184 184 185 191 206 229 250 249 257 257 259 269 276 283 290 301 314
259 253 256 261 272 259 270 284 298 317 343 359 349 231 204 200 208 197 186 177 185 204 203 197 198 198 200 196 195 193 195 194 197 201 206 212 232 246 250 259 264 265 266 270 275 280 289 299 307
243 248 232 220 242 245 229 281 283 330 345 336 333 5 209 206 210 208 207 195 192 181 181 196 200 199 201 204 205 203 201 198 201 209 214 222 235 259 266 267 269 265 266 268 272 279 287 293 299
243 228 229 232 234 254 261 257 263 301 327 328 331 354 325 226 220 218 220 196 199 194 198 201 199 207 211 217 214 213 211 211 217 221 222 228 239 254 265 271 276 276 274 273 275 280 285 287 294
261 256 238 232 222 221 249 260 274 301 307 313 321 309 312 252 244 232 220 211 206 219 227 229 225 223 217 218 222 222 220 222 226 228 229 232 239 248 255 263 270 275 276 274 279 281 283 288 291
Height
3174 3175 3175 3175 3179 3176 3177 3180 3179 3179 3180 3181 3182 3183 3184 3184 3185 3189 3186 3187 3189 3192 3193 3194 3195 3196 3197 3198 3199 3200 3201 3201 3201 3201 3202 3204 3205 3206 3207 3207 3208 3208 3208 3209 3209 3209 3210 3210 3210
3174 3175 3176 3176 3178 3178 3180 3180 3180 3181 3181 3181 3182 3183 3184 3185 3185 3186 3187 3188 3191 3193 3195 3197 3197 3198 3199 3199 3200 3201 3202 3203 3203 3203 3204 3206 3207 3207 3209 3209 3209 3210 3210 3211 3211 3212 3212 3212 3212
3175 3177 3179 3178 3179 3180 3181 3182 3182 3182 3182 3182 3183 3184 3184 3184 3184 3186 3188 3190 3192 3194 3197 3199 3200 3201 3201 3202 3201 3203 3204 3204 3204 3205 3206 3208 3209 3209 3210 3210 3211 3211 3211 3212 3213 3213 3213 3213 3213
3178 3179 3180 3180 3180 3182 3182 3183 3183 3183 3183 3183 3184 3184 3185 3185 3185 3187 3190 3192 3194 3196 3198 3200 3202 3203 3203 3203 3205 3205 3205 3205 3206 3207 3209 3211 3211 3211 3211 3212 3212 3213 3213 3213 3213 3213 3214 3214 3214
3179 3179 3180 3181 3182 3183 3183 3184 3184 3184 3184 3184 3184 3184 3185 3185 3186 3189 3191 3193 3195 3197 3198 3201 3202 3203 3204 3205 3206 3207 3207 3207 3208 3209 3211 3212 3212 3213 3213 3214 3214 3214 3214 3214 3214 3214 3214 3214 3215
3181 3182 3182 3183 3183 3184 3184 3184 3185 3185 3184 3184 3184 3184 3186 3186 3187 3189 3191 3193 3195 3197 3199 3201 3203 3204 3205 3206 3207 3208 3209 3209 3210 3210 3212 3213 3214 3214 3215 3215 3215 3216 3215 3215 3214 3214 3215 3215 3215
3183 3184 3184 3184 3185 3185 3186 3185 3186 3185 3185 3184 3184 3185 3186 3186 3187 3189 3191 3193 3195 3197 3200 3201 3203 3204 3206 3207 3208 3209 3210 3211 3211 3212 3213 3214 3215 3215 3216 3217 3217 3217 3217 3217 3215 3215 3215 3215 3215
3185 3186 3186 3186 3186 3187 3187 3186 3186 3186 3186 3185 3184 3185 3186 3186 3187 3189 3192 3194 3196 3198 3200 3202 3204 3205 3206 3207 3209 3210 3211 3212 3212 3213 3215 3216 3216 3217 3218 3218 3218 3218 3219 3219 3218 3217 3216 3216 3215
3187 3188 3187 3187 3187 3187 3187 3187 3187 3186 3186 3185 3184 3184 3185 3187 3188 3190 3192 3194 3197 3198 3200 3202 3204 3205 3206 3207 3209 3211 3211 3212 3213 3214 3215 3217 3218 3218 3219 3219 3219 3220 3220 3220 3220 3219 3218 3217 3215
3188 3189 3188 3188 3188 3188 3188 3187 3187 3187 3186 3185 3184 3183 3185 3187 3189 3190 3191 3194 3197 3199 3201 3203 3204 3206 3206 3208 3210 3211 3212 3213 3214 3215 3216 3218 3219 3219 3220 3219 3220 3221 3221 3221 3220 3220 3218 3217 3216
3189 3189 3189 3189 3189 3188 3188 3188 3187 3187 3186 3184 3183 3183 3186 3188 3189 3190 3190 3193 3196 3198 3201 3203 3205 3206 3207 3209 3210 3212 3213 3215 3216 3216 3217 3219 3219 3220 3220 3220 3220 3221 3222 3221 3221 3220 3219 3218 3217
3191 3190 3189 3188 3188 3188 3188 3188 3188 3187 3187 3185 3184 3185 3187 3189 3190 3191 3191 3194 3197 3199 3201 3203 3205 3207 3208 3210 3211 3212 3214 3215 3216 3217 3217 3218 3219 3220 3220 3220 3221 3221 3222 3222 3221 3220 3219 3218 3217
3190 3190 3189 3188 3187 3188 3188 3188 3188 3188 3188 3187 3186 3186 3189 3190 3191 3192 3193 3195 3197 3200 3202 3204 3206 3207 3208 3210 3211 3212 3213 3214 3215 3217 3217 3218 3219 3220 3220 3220 3221 3221 3222 3222 3222 3221 3220 3219 3218
3189 3189 3188 3187 3186 3186 3186 3186 3187 3188 3188 3188 3188 3188 3189 3190 3192 3193 3194 3196 3198 3200 3202 3204 3206 3207 3209 3210 3211 3213 3214 3215 3215 3216 3217 3218 3219 3219 3220 3220 3220 3221 3221 3221 3221 3220 3219 3218 3217
3189 3188 3186 3186 3185 3185 3185 3184 3185 3186 3186 3187 3188 3188 3189 3191 3191 3193 3194 3196 3197 3199 3202 3203 3205 3207 3208 3209 3211 3213 3214 3215 3216 3217 3218 3218 3218 3219 3219 3220 3220 3221 3220 3221 3220 3219 3218 3217 3216
3188 3187 3187 3184 3184 3183 3185 3182 3183 3183 3184 3185 3185 3187 3189 3191 3192 3192 3194 3195 3197 3199 3200 3203 3205 3206 3208 3209 3211 3212 3213 3214 3215 3217 3218 3218 3219 3219 3220 3220 3220 3220 3220 3220 3220 3219 3218 3217 3216
3189 3186 3185 3184 3182 3182 3182 3180 3181 3182 3182 3183 3183 3184 3186 3189 3190 3191 3193 3194 3196 3197 3200 3202 3204 3206 3208 3209 3210 3211 3213 3214 3215 3216 3217 3218 3218 3219 3219 3219 3219 3219 3219 3219 3218 3218 3218 3217 3216
3190 3186 3184 3182 3181 3179 3179 3178 3179 3180 3180 3181 3181 3182 3183 3186 3189 3191 3192 3194 3195 3196 3198 3201 3202 3204 3206 3207 3209 3210 3212 3213 3215 3215 3216 3216 3217 3218 3218 3219 3219 3219 3219 3219 3218 3218 3218 3217 3217
3191 3188 3184 3182 3181 3178 3176 3175 3176 3177 3178 3178 3179 3179 3181 3183 3187 3187 3189 3191 3192 3194 3196 3198 3200 3202 3204 3206 3208 3209 3211 3212 3213 3213 3214 3215 3216 3217 3218 3218 3219 3219 3219 3218 3218 3219 3218 3217 3216
3190 3187 3185 3181 3178 3176 3173 3171 3172 3172 3174 3177 3177 3178 3178 3180 3182 3184 3186 3187 3189 3192 3194 3196 3198 3200 3203 3205 3207 3208 3209 3210 3211 3211 3212 3213 3214 3216 3217 3218 3219 3219 3218 3217 3217 3217 3217 3217 3215
3189 3187 3185 3182 3177 3173 3171 3166 3167 3168 3170 3173 3174 3176 3176 3177 3179 3181 3183 3186 3187 3189 3192 3193 3196 3199 3201 3203 3205 3206 3208 3209 3210 3210 3211 3212 3213 3215 3216 3217 3218 3218 3217 3217 3217 3218 3217 3216 3214
3186 3186 3183 3181 3178 3175 3173 3170 3166 3165 3166 3168 3171 3173 3173 3174 3176 3178 3180 3182 3184 3187 3189 3191 3193 3196 3198 3201 3203 3204 3206 3207 3208 3208 3209 3210 3212 3213 3215 3217 3218 3217 3217 3217 3217 3217 3216 3214 3212
3185 3183 3181 3179 3176 3172 3171 3172 3165 3165 3164 3163 3165 3168 3171 3172 3173 3175 3177 3179 3182 3184 3186 3189 3191 3194 3196 3199 3201 3203 3204 3205 3206 3207 3208 3210 3211 3213 3215 3216 3216 3217 3217 3217 3217 3217 3217 3215 3213
3183 3181 3179 3176 3175 3172 3170 3172 3164 3164 3164 3163 3161 3162 3167 3169 3171 3173 3175 3177 3179 3182 3183 3186 3188 3192 3194 3197 3199 3201 3203 3205 3206 3207 3209 3211 3212 3213 3215 3216 3216 3217 3217 3218 3218 3218 3217 3214 3212
3180 3179 3178 3175 3172 3169 3169 3169 3162 3163 3162 3161 3159 3158 3162 3165 3168 3170 3172 3174 3176 3179 3182 3184 3186 3189 3192 3195 3198 3200 3202 3204 3206 3207 3208 3210 3212 3213 3214 3215 3215 3215 3215 3215 3216 3216 3215 3213 3210
3175 3177 3178 3175 3171 3171 3168 3165 3161 3161 3161 3159 3157 3155 3159 3162 3165 3168 3171 3173 3175 3177 3179 3182 3184 3187 3190 3193 3196 3198 3201 3203 3205 3207 3208 3209 3210 3211 3212 3213 3214 3214 3214 3213 3212 3213 3212 3211 3210
3169 3170 3173 3171 3169 3170 3166 3163 3160 3160 3161 3158 3155 3153 3154 3158 3162 3166 3169 3172 3174 3176 3178 3180 3183 3185 3188 3191 3193 3196 3198 3201 3204 3206 3207 3208 3208 3209 3209 3210 3210 3211 3210 3210 3210 3210 3209 3210 3208
3163 3165 3167 3167 3165 3163 3161 3161 3159 3159 3157 3157 3156 3154 3155 3157 3160 3164 3167 3170 3173 3174 3176 3178 3180 3183 3187 3189 3191 3193 3196 3198 3200 3202 3204 3205 3206 3206 3207 3207 3207 3207 3206 3205 3205 3205 3206 3205 3204
3159 3158 3158 3159 3159 3157 3157 3155 3156 3157 3157 3155 3155 3155 3156 3157 3158 3161 3163 3166 3170 3172 3174 3177 3178 3181 3183 3186 3189 3191 3194 3195 3197 3199 3201 3203 3203 3204 3204 3203 3203 3202 3202 3201 3201 3202 3201 3200 3200
3152 3152 3152 3152 3154 3154 3153 3150 3154 3154 3153 3153 3153 3153 3154 3156 3157 3159 3161 3164 3166 3168 3170 3173 3176 3178 3181 3183 3186 3189 3190 3192 3193 3195 3197 3197 3198 3199 3199 3199 3198 3198 3197 3196 3196 3196 3196 3196 3194